Location: Franzen
(48.6167°N, 15.3833°E)
Time: 10:13:27
(UTC+00:00)

Cosmos 909 Rocket - Pass Details

Date: 22 April 2021
Orbit: 989 x 2090 km, 65.9° (Epoch: 16 May)

Event Time Altitude Azimuth Distance (km) Brightness Sun altitude
Rises 18:32:31 0° 203° (SSW) 3,787 7.1 -5.7°
Reaches altitude 10° 18:35:09 10° 200° (SSW) 2,783 6.3 -6.1°
Maximum altitude 18:41:21 64° 121° (ESE) 1,094 4.1 -7.0°
Drops below altitude 10° 18:47:44 10° 41° (NE) 2,859 6.3 -7.9°
Sets 18:50:29 0° 39° (NE) 3,898 7.1 -8.3°
